Location: San Antonio
(29.4240°N, 98.4930°W)
Time: 20:33:00
(UTC-06:00)

ISS - All Passes

Search period start: 12 February 2016 00:00
Search period end: 22 February 2016 00:00
Orbit: 398 x 408 km, 51.6° (Epoch: 12 February)

Date Brightness Start Highest point End Pass type
(mag) Time Alt. Az. Time Alt. Az. Time Alt. Az.
12 Feb - 14:12:00 10° SW 14:15:13 72° SE 14:18:27 10° NE daylight
12 Feb - 22:20:46 10° NNW 22:23:55 48° NE 22:27:03 10° ESE night (unlit)
13 Feb - 13:19:44 10° S 13:22:35 28° SE 13:25:25 10° ENE daylight
13 Feb - 14:56:43 10° W 14:59:01 18° NW 15:01:19 10° N daylight
13 Feb - 21:28:27 10° NNW 21:31:05 22° NE 21:33:43 10° E night (unlit)
13 Feb - 23:04:57 10° WNW 23:07:24 20° SW 23:09:53 10° S night (unlit)
14 Feb - 12:28:31 10° SSE 12:29:59 12° SE 12:31:27 10° E daylight
14 Feb - 14:03:07 10° WSW 14:06:08 35° NW 14:09:09 10° NNE daylight
14 Feb - 20:36:44 10° N 20:38:08 12° NE 20:39:32 10° ENE night (unlit)
14 Feb - 22:11:37 10° NW 22:14:45 48° SW 22:17:52 10° SSE night (unlit)
15 Feb - 13:10:04 10° SW 13:13:18 86° NW 13:16:34 10° NE daylight
15 Feb - 21:18:46 10° NW 21:21:59 64° NE 21:25:11 10° SE night (unlit)
16 Feb - 12:17:31 10° SSW 12:20:33 36° SE 12:23:34 10° ENE daylight
16 Feb - 13:55:07 10° WNW 13:57:04 15° NW 13:59:01 10° N daylight
16 Feb - 20:26:15 10° NNW 20:29:05 27° NE 20:31:55 10° ESE visible
16 Feb - 22:03:15 10° W 22:05:19 16° SW 22:07:24 10° SSW night (unlit)
17 Feb - 11:25:45 10° SSE 11:27:50 16° SE 11:29:53 10° E daylight
17 Feb - 13:01:10 10° WSW 13:04:03 28° NW 13:06:55 10° NNE daylight
17 Feb - 19:34:10 10° N 19:36:04 14° NE 19:37:57 10° ENE visible
17 Feb - 21:09:35 10° WNW 21:12:35 37° SW 21:15:36 10° SSE visible
18 Feb - 12:07:53 10° SW 12:11:06 66° NW 12:14:20 10° NE daylight
18 Feb - 20:16:31 10° NW 20:19:45 84° NE 20:22:58 10° SE visible
19 Feb - 11:15:04 10° SSW 11:18:13 47° SE 11:21:22 10° NE daylight
19 Feb - 12:53:18 10° WNW 12:54:49 13° NW 12:56:20 10° N daylight
19 Feb - 19:23:48 10° NNW 19:26:47 34° NE 19:29:46 10° ESE visible
19 Feb - 21:01:25 10° W 21:02:56 13° SW 21:04:26 10° SSW visible
20 Feb - 10:22:56 10° S 10:25:22 20° SE 10:27:50 10° ENE daylight
20 Feb - 11:58:59 10° W 12:01:40 23° NW 12:04:22 10° NNE daylight
20 Feb - 18:31:27 10° N 18:33:41 17° NE 18:35:55 10° E daylight
20 Feb - 20:07:16 10° WNW 20:10:07 29° SW 20:12:57 10° S visible
21 Feb - 11:05:26 10° WSW 11:08:36 51° NW 11:11:47 10° NNE daylight
21 Feb - 19:13:59 10° NW 19:17:12 75° SW 19:20:25 10° SE visible
